Home   Weather   Lynchburg   Past weeks

Flag for USA Past Weather in Lynchburg, Virginia, USA — Yesterday and Last 2 Weeks

Now
39 °F

Clear.


Feels Like: 39 °F
Forecast: 39 / 57 °F
Wind: No wind

Location: Lynchburg Regional Airport

Current Time: Jan 17, 2017 at 6:04:29 am

Latest Report: Jan 17, 2017 at 4:54 am


Visibility: 10 mi

Pressure: 30.21 "Hg

Humidity: 89%

Dew Point: 36 °F

Location of LynchburgLocation

Past Weather in Lynchburg — Graph

°F

Lynchburg Temperature Yesterday

Maximum temperature yesterday: 47 °F (at 4:54 pm)
Minimum temperature yesterday: 38 °F (at 7:54 pm)
Average temperature yesterday: 41 °F

High & Low Weather Summary for the Past Weeks

 TemperatureHumidityPressure
High65 °F (Jan 13, 3:54 pm)100% (Jan 2, 5:54 pm)30.81 "Hg (Jan 2, 5:54 pm)
Low1 °F (Jan 9, 6:54 am)22% (Jan 4, 7:54 pm)29.59 "Hg (Jan 4, 4:54 am)
Average37 °F76%30.26 "Hg
* Reported Jan 2 4:54 am — Jan 17 4:54 am, Lynchburg, Weather by CustomWeather, © 2017

Note: Actual official high and low records may vary slightly from our data, if they occured in-between our weather recording intervals... More about our weather records

Advertising

Lynchburg Weather History for the Previous 24 Hours

Scroll right to see more
 ConditionsComfort  
Time TempWeatherWind HumidityBarometerVisibility
4:54 am
Tue, Jan 17
39 °FClear.No wind89%30.21 "Hg10 mi
3:54 am40 °FClear.3 mph86%30.23 "Hg10 mi
3:17 am40 °FMostly cloudy.3 mph89%30.23 "Hg10 mi
2:54 am40 °FMostly cloudy.3 mph89%30.26 "Hg10 mi
1:54 am39 °FPassing clouds.No wind93%30.26 "Hg10 mi
12:54 am40 °FOvercast.3 mph89%30.27 "Hg10 mi
11:54 pm
Mon, Jan 16
38 °FOvercast.No wind97%30.29 "Hg10 mi
10:54 pm38 °FPassing clouds.No wind93%30.32 "Hg10 mi
9:54 pm39 °FClear.No wind89%30.34 "Hg10 mi
8:54 pm39 °FPassing clouds.No wind93%30.35 "Hg8 mi
7:54 pm38 °FFog.No wind93%30.36 "Hg6 mi
6:54 pm39 °FClear.No wind93%30.36 "Hg9 mi
5:54 pm42 °FClear.No wind92%30.35 "Hg10 mi
4:54 pm47 °FOvercast.No wind74%30.36 "Hg10 mi
3:54 pm46 °FOvercast.No wind77%30.36 "Hg10 mi
2:54 pm46 °FOvercast.5 mph77%30.37 "Hg10 mi
2:14 pm45 °FMore clouds than sun.5 mph80%30.36 "Hg10 mi
1:54 pm45 °FMostly cloudy.6 mph80%30.37 "Hg10 mi
1:15 pm44 °FMore clouds than sun.No wind82%30.38 "Hg10 mi
12:54 pm44 °FMostly cloudy.5 mph82%30.40 "Hg10 mi
12:36 pm43 °FMore clouds than sun.No wind82%30.41 "Hg10 mi
11:54 am42 °FMostly cloudy.No wind85%30.44 "Hg10 mi
10:54 am41 °FLow clouds.5 mph93%30.47 "Hg10 mi
9:54 am40 °FLow clouds.3 mph97%30.47 "Hg9 mi
8:54 am39 °FLow clouds.No wind96%30.45 "Hg10 mi
8:29 am39 °FMostly cloudy.No wind93%30.42 "Hg9 mi
7:54 am39 °FOvercast.No wind93%30.44 "Hg10 mi
6:54 am39 °FOvercast.No wind93%30.43 "Hg10 mi
6:24 am39 °FFog.3 mph93%30.41 "Hg6 mi
6:08 am39 °FLow clouds.No wind93%30.41 "Hg10 mi
Weather by CustomWeather, © 2017

See weather overviewHow to use our weather pages